Punta Gorda, FL

12:04 AM EST on February 20, 2017 (GMT -0500)
Charlotte County

Weather History for KPGD - April, 2014

Change the Weather History Date:

Friday, April 4, 2014

  Actual Average Record
Temperature  
Mean Temperature 73 °F -  
Max Temperature 84 °F 81 °F 91 °F (2011)
Min Temperature 62 °F 58 °F 45 °F (2005)
Cooling Degree Days 8    
Growing Degree Days 23 (Base 50)    
Moisture  
Dew Point 63 °F    
Average Humidity 74    
Maximum Humidity 96    
Minimum Humidity 47    
Precipitation  
Precipitation 0.00 in - - ()
Sea Level Pressure  
Sea Level Pressure 30.05 in    
Wind  
Wind Speed 6 mph (SSW)    
Max Wind Speed 17 mph    
Max Gust Speed 20 mph    
Visibility 10 miles    
Events      
Averages and records for this station are not official NWS values.
T = Trace of Precipitation, MM = Missing Value Source: NWS Daily Summary

Daily Weather History Graph

Daily Weather History Graph

Search for Another Location

Airport or City:

Trip Planner

Search our weather history database for the weather conditions in past years. The results will help you decide how hot, cold, wet, or windy it might be!

Date:

Astronomy

Apr. 04, 2014 Rise Set
Actual Time 7:15 AM EDT 7:46 PM EDT
Civil Twilight 6:52 AM EDT 8:10 PM EDT
Nautical Twilight 6:24 AM EDT 8:37 PM EDT
Astronomical Twilight 5:56 AM EDT 9:05 PM EDT
Moon 10:50 AM EDT (4/4) No Moon Set
Length of Visible Light 13h 18m
Length of Day
12h 31m
Waxing Crescent, 25% of the Moon is Illuminated
Apr 4
Waxing Crescent
Apr 7
First Quarter
Apr 15
Full
Apr 22
Last Quarter
Apr 29
New

Hourly Weather History & Observations

Time (EDT) Temp. Heat Index Dew Point Humidity Pressure Visibility Wind Dir Wind Speed Gust Speed Precip Events Conditions
12:53 AM 64.9 °F - 62.1 °F 90% 30.10 in 10.0 mi East 3.5 mph - N/A   Clear
1:53 AM 64.9 °F - 62.1 °F 90% 30.08 in 10.0 mi ESE 6.9 mph - N/A   Clear
2:53 AM 64.9 °F - 62.1 °F 90% 30.06 in 10.0 mi SE 4.6 mph - N/A   Clear
3:53 AM 64.0 °F - 61.0 °F 90% 30.04 in 10.0 mi ESE 4.6 mph - N/A   Clear
4:53 AM 63.0 °F - 61.0 °F 93% 30.04 in 10.0 mi ESE 4.6 mph - N/A   Clear
5:18 AM 63.0 °F - 61.0 °F 93% 30.03 in 10.0 mi ESE 5.8 mph - N/A   Mostly Cloudy
5:30 AM 63.0 °F - 61.0 °F 93% 30.04 in 10.0 mi East 4.6 mph - N/A   Scattered Clouds
5:53 AM 62.1 °F - 60.1 °F 93% 30.04 in 10.0 mi Calm Calm - N/A   Clear
6:53 AM 62.1 °F - 60.1 °F 93% 30.05 in 6.0 mi Calm Calm - N/A   Clear
7:53 AM 62.1 °F - 61.0 °F 96% 30.06 in 10.0 mi Calm Calm - N/A   Clear
8:53 AM 68.0 °F - 64.0 °F 87% 30.08 in 10.0 mi SE 6.9 mph - N/A   Partly Cloudy
9:53 AM 73.0 °F - 64.9 °F 76% 30.08 in 10.0 mi SSE 10.4 mph - N/A   Clear
10:53 AM 79.0 °F - 63.0 °F 58% 30.08 in 10.0 mi South 15.0 mph - N/A   Clear
11:53 AM 82.0 °F 83.0 °F 62.1 °F 51% 30.08 in 10.0 mi SSE 12.7 mph - N/A   Partly Cloudy
12:53 PM 82.9 °F 83.7 °F 62.1 °F 49% 30.07 in 10.0 mi SSE 10.4 mph 19.6 mph N/A   Scattered Clouds
1:53 PM 82.9 °F 84.4 °F 64.0 °F 53% 30.06 in 10.0 mi WSW 12.7 mph - N/A   Partly Cloudy
2:53 PM 82.9 °F 84.0 °F 63.0 °F 51% 30.06 in 10.0 mi West 17.3 mph - N/A   Clear
3:53 PM 84.0 °F 84.5 °F 62.1 °F 47% 30.04 in 10.0 mi WSW 13.8 mph - N/A   Clear
4:53 PM 82.9 °F 84.0 °F 63.0 °F 51% 30.04 in 10.0 mi WSW 12.7 mph - N/A   Clear
5:53 PM 81.0 °F 82.2 °F 63.0 °F 54% 30.03 in 10.0 mi WSW 11.5 mph - N/A   Clear
6:53 PM 81.0 °F 81.9 °F 62.1 °F 52% 30.03 in 10.0 mi West 6.9 mph - N/A   Clear
7:53 PM 77.0 °F - 63.0 °F 62% 30.03 in 10.0 mi West 4.6 mph - N/A   Clear
8:53 PM 73.9 °F - 64.0 °F 71% 30.04 in 10.0 mi West 4.6 mph - N/A   Clear
9:53 PM 72.0 °F - 64.9 °F 78% 30.06 in 10.0 mi West 4.6 mph - N/A   Clear
10:53 PM 71.1 °F - 64.9 °F 81% 30.06 in 10.0 mi West 4.6 mph - N/A   Clear
11:53 PM 71.1 °F - 66.0 °F 84% 30.05 in 10.0 mi WSW 4.6 mph - N/A   Clear